TimeWEST,TemperatureF,Dew PointF,Humidity,Sea Level PressureIn,VisibilityMPH,Wind Direction,Wind SpeedMPH,Gust SpeedMPH,PrecipitationIn,Events,Conditions,WindDirDegrees,DateUTC
12:00 AM,77.0,62.6,61,30.06,-9999.0,NNE,3.5,-,N/A,,Clear,30,2013-08-30 23:00:00
12:30 AM,77.0,62.6,61,30.06,-9999.0,Calm,Calm,-,N/A,,Clear,0,2013-08-30 23:30:00
1:00 AM,73,62,61,30.02,6,SW,6.9,,,,,230,2013-08-31 00:00:00
1:00 AM,73.4,62.6,69,30.06,-9999.0,SW,6.9,-,N/A,,Clear,220,2013-08-31 00:00:00
1:30 AM,71.6,62.6,73,30.06,-9999.0,WSW,5.8,-,N/A,,Clear,250,2013-08-31 00:30:00
2:00 AM,71.6,60.8,69,30.06,-9999.0,West,3.5,-,N/A,,Clear,260,2013-08-31 01:00:00
2:30 AM,71.6,62.6,73,30.06,-9999.0,SW,4.6,-,N/A,,Clear,220,2013-08-31 01:30:00
3:00 AM,71.6,62.6,73,30.04,-9999.0,SW,5.8,-,N/A,,Clear,220,2013-08-31 02:00:00
3:30 AM,69.8,62.6,78,30.04,6.2,SW,4.6,-,N/A,,Unknown,230,2013-08-31 02:30:00
4:00 AM,69,62,71,29.99,6,WSW,3.5,,,,,250,2013-08-31 03:00:00
4:00 AM,69.8,60.8,73,30.04,6.2,West,3.5,-,N/A,,Unknown,260,2013-08-31 03:00:00
4:30 AM,68.0,60.8,78,30.04,6.2,SW,3.5,-,N/A,,Unknown,230,2013-08-31 03:30:00
5:00 AM,69.8,62.6,78,30.01,6.2,WSW,2.3,-,N/A,,Unknown,240,2013-08-31 04:00:00
5:30 AM,68.0,62.6,83,30.01,-9999.0,WSW,3.5,-,N/A,,Clear,250,2013-08-31 04:30:00
6:00 AM,66.2,60.8,83,30.01,-9999.0,WSW,4.6,-,N/A,,Clear,240,2013-08-31 05:00:00
6:30 AM,66.2,60.8,83,30.01,-9999.0,WSW,3.5,-,N/A,,Clear,250,2013-08-31 05:30:00
7:00 AM,66,60,77,29.98,6,WSW,3.5,,,,,240,2013-08-31 06:00:00
7:00 AM,66.2,60.8,83,30.01,-9999.0,WSW,3.5,-,N/A,,Clear,240,2013-08-31 06:00:00
7:30 AM,66.2,60.8,83,30.04,-9999.0,WSW,2.3,-,N/A,,Clear,240,2013-08-31 06:30:00
8:00 AM,68.0,60.8,78,30.04,-9999.0,WSW,3.5,-,N/A,,Clear,240,2013-08-31 07:00:00
8:30 AM,69.8,62.6,78,30.04,-9999.0,West,3.5,-,N/A,,Clear,280,2013-08-31 07:30:00
9:00 AM,73.4,62.6,69,30.04,-9999.0,WNW,4.6,-,N/A,,Clear,290,2013-08-31 08:00:00
9:30 AM,73.4,62.6,69,30.04,-9999.0,West,4.6,-,N/A,,Clear,260,2013-08-31 08:30:00
10:00 AM,75,64,60,29.98,6,WNW,4.6,,,,,300,2013-08-31 09:00:00
10:00 AM,75.2,64.4,69,30.04,-9999.0,Variable,3.5,-,N/A,,Clear,0,2013-08-31 09:00:00
10:30 AM,77.0,64.4,65,30.06,-9999.0,WNW,5.8,-,N/A,,Clear,290,2013-08-31 09:30:00
11:00 AM,77.0,64.4,65,30.04,-9999.0,WSW,5.8,-,N/A,,Clear,250,2013-08-31 10:00:00
11:30 AM,80.6,60.8,51,30.06,-9999.0,North,4.6,-,N/A,,Clear,360,2013-08-31 10:30:00
12:00 PM,82.4,62.6,51,30.04,-9999.0,NW,4.6,-,N/A,,Clear,310,2013-08-31 11:00:00
12:30 PM,84.2,62.6,48,30.04,-9999.0,Variable,4.6,-,N/A,,Clear,0,2013-08-31 11:30:00
1:00 PM,86,61,33,29.94,6,NNW,4.6,,,,,330,2013-08-31 12:00:00
1:00 PM,86.0,60.8,43,30.04,-9999.0,Variable,4.6,-,N/A,,Clear,0,2013-08-31 12:00:00
1:30 PM,87.8,60.8,40,30.04,-9999.0,Variable,4.6,-,N/A,,Clear,0,2013-08-31 12:30:00
2:00 PM,87.8,59.0,38,30.01,-9999.0,Variable,5.8,-,N/A,,Clear,0,2013-08-31 13:00:00
2:30 PM,91.4,59.0,34,30.01,-9999.0,Variable,4.6,-,N/A,,Clear,0,2013-08-31 13:30:00
3:00 PM,91.4,55.4,29,30.01,-9999.0,North,4.6,-,N/A,,Clear,350,2013-08-31 14:00:00
3:30 PM,91.4,57.2,31,29.98,-9999.0,East,5.8,-,N/A,,Clear,100,2013-08-31 14:30:00
4:00 PM,94,56,19,29.87,6,North,6.9,,,,Scattered Clouds,10,2013-08-31 15:00:00
4:00 PM,93.2,55.4,28,29.98,6.2,North,6.9,-,N/A,,Partly Cloudy,350,2013-08-31 15:00:00
4:30 PM,95.0,55.4,26,29.98,6.2,Variable,3.5,-,N/A,,Partly Cloudy,0,2013-08-31 15:30:00
5:00 PM,95.0,53.6,25,29.98,6.2,ENE,3.5,-,N/A,,Partly Cloudy,70,2013-08-31 16:00:00
5:30 PM,96.8,51.8,22,29.98,6.2,Variable,5.8,-,N/A,,Partly Cloudy,0,2013-08-31 16:30:00
6:00 PM,96.8,51.8,22,29.98,6.2,Variable,4.6,-,N/A,,Partly Cloudy,0,2013-08-31 17:00:00
6:30 PM,96.8,51.8,22,29.95,6.2,Variable,2.3,-,N/A,,Partly Cloudy,0,2013-08-31 17:30:00
7:00 PM,96,52,14,29.84,6,NW,3.5,,,,Scattered Clouds,320,2013-08-31 18:00:00
7:00 PM,96.8,51.8,22,29.95,6.2,NW,3.5,-,N/A,,Partly Cloudy,310,2013-08-31 18:00:00
7:30 PM,95.0,53.6,25,29.98,6.2,NW,5.8,-,N/A,,Partly Cloudy,320,2013-08-31 18:30:00
8:00 PM,93.2,50.0,23,29.98,6.2,NNW,6.9,-,N/A,,Partly Cloudy,330,2013-08-31 19:00:00
8:30 PM,91.4,46.4,21,29.98,6.2,NNW,6.9,-,N/A,,Partly Cloudy,340,2013-08-31 19:30:00
9:00 PM,89.6,46.4,22,29.98,6.2,North,4.6,-,N/A,,Partly Cloudy,350,2013-08-31 20:00:00
9:30 PM,87.8,60.8,40,30.01,6.2,North,12.7,-,N/A,,Partly Cloudy,360,2013-08-31 20:30:00
10:00 PM,86.0,60.8,43,30.01,6.2,North,10.4,-,N/A,,Partly Cloudy,360,2013-08-31 21:00:00
10:30 PM,84.2,60.8,45,30.01,6.2,NNE,10.4,-,N/A,,Partly Cloudy,20,2013-08-31 21:30:00
11:00 PM,82.4,59.0,45,30.04,-9999.0,NNE,11.5,-,N/A,,Clear,30,2013-08-31 22:00:00
11:30 PM,82.4,59.0,45,30.04,-9999.0,NNE,9.2,-,N/A,,Clear,30,2013-08-31 22:30:00